Time,TemperatureF,DewpointF,PressureIn,WindDirection,WindDirectionDegrees,WindSpeedMPH,WindSpeedGustMPH,Humidity,HourlyPrecipIn,Conditions,Clouds,dailyrainin,SoftwareType,DateUTC
2013-04-20 00:00:00,27.1,22.1,29.50,WSW,252,28.0,41.0,81,0.00,,---,0.00,VWS V15.00,2013-04-20 04:00:00,
2013-04-20 00:01:00,27.1,22.1,29.50,WSW,253,29.0,41.0,81,0.00,,---,1.75,VWS V14.01,2013-04-20 04:01:00,
2013-04-20 00:06:00,27.1,22.4,29.51,West,277,21.0,33.0,82,0.00,,---,0.00,VWS V14.01,2013-04-20 04:06:00,
2013-04-20 00:11:00,26.7,22.0,29.52,WSW,250,29.0,33.0,82,0.00,,---,0.00,VWS V14.01,2013-04-20 04:11:00,
2013-04-20 00:16:00,26.6,21.6,29.52,West,269,22.0,33.0,81,0.00,,---,0.00,VWS V14.01,2013-04-20 04:16:00,
2013-04-20 00:21:00,26.5,21.5,29.53,WNW,287,24.0,33.0,81,0.00,,---,0.00,VWS V14.01,2013-04-20 04:21:00,
2013-04-20 00:26:00,26.4,21.1,29.53,West,268,34.0,34.0,80,0.00,,---,0.00,VWS V14.01,2013-04-20 04:26:00,
2013-04-20 00:30:00,26.3,21.6,29.53,WNW,285,18.0,35.0,82,0.00,,---,0.00,VWS V15.00,2013-04-20 04:30:00,
2013-04-20 00:31:00,26.3,21.6,29.53,WNW,287,22.0,22.0,82,0.00,,---,0.00,VWS V14.01,2013-04-20 04:31:00,
2013-04-20 00:36:00,26.0,21.0,29.54,West,280,25.0,31.0,81,0.00,,---,0.00,VWS V14.01,2013-04-20 04:36:00,
2013-04-20 00:42:00,26.0,21.0,29.54,WNW,284,25.0,33.0,81,0.00,,---,0.00,VWS V14.01,2013-04-20 04:42:00,
2013-04-20 00:47:00,25.8,21.1,29.55,West,276,25.0,33.0,82,0.00,,---,0.00,VWS V14.01,2013-04-20 04:47:00,
2013-04-20 00:52:00,25.5,19.9,29.55,West,273,33.0,33.0,79,0.00,,---,0.00,VWS V14.01,2013-04-20 04:52:00,
2013-04-20 00:57:00,25.4,19.5,29.56,West,270,33.0,34.0,78,0.00,,---,0.00,VWS V14.01,2013-04-20 04:57:00,
2013-04-20 01:00:00,25.4,19.5,29.56,WSW,257,34.0,34.0,78,0.00,,---,0.00,VWS V15.00,2013-04-20 05:00:00,
2013-04-20 01:02:00,25.3,19.4,29.56,West,272,27.0,34.0,78,0.00,,---,0.00,VWS V14.01,2013-04-20 05:02:00,
2013-04-20 01:07:00,25.3,19.7,29.56,West,265,24.0,34.0,79,0.00,,---,0.00,VWS V14.01,2013-04-20 05:07:00,
2013-04-20 01:12:00,25.2,19.6,29.56,West,266,29.0,35.0,79,0.00,,---,0.00,VWS V14.01,2013-04-20 05:12:00,
2013-04-20 01:17:00,25.1,19.2,29.57,West,266,29.0,35.0,78,0.00,,---,0.00,VWS V14.01,2013-04-20 05:17:00,
2013-04-20 01:22:00,25.1,19.5,29.57,West,260,30.0,35.0,79,0.00,,---,0.00,VWS V14.01,2013-04-20 05:22:00,
2013-04-20 01:27:00,25.1,19.5,29.57,WNW,286,23.0,35.0,79,0.00,,---,0.00,VWS V14.01,2013-04-20 05:27:00,
2013-04-20 01:30:00,25.0,20.0,29.57,WNW,284,22.0,35.0,81,0.00,,---,0.00,VWS V15.00,2013-04-20 05:30:00,
2013-04-20 01:32:00,25.0,20.0,29.57,WNW,287,23.0,23.0,81,0.00,,---,0.00,VWS V14.01,2013-04-20 05:32:00,
2013-04-20 01:37:00,24.6,19.0,29.58,WNW,284,24.0,31.0,79,0.00,,---,0.00,VWS V14.01,2013-04-20 05:37:00,
2013-04-20 01:42:00,24.5,18.9,29.58,WNW,285,25.0,31.0,79,0.00,,---,0.00,VWS V14.01,2013-04-20 05:42:00,
2013-04-20 01:47:00,24.3,18.4,29.58,West,275,26.0,31.0,78,0.00,,---,0.00,VWS V14.01,2013-04-20 05:47:00,
2013-04-20 01:52:00,24.3,18.7,29.58,West,275,28.0,31.0,79,0.00,,---,0.00,VWS V14.01,2013-04-20 05:52:00,
2013-04-20 01:57:00,24.2,18.3,29.59,WNW,289,22.0,31.0,78,0.00,,---,0.00,VWS V14.01,2013-04-20 05:57:00,
2013-04-20 02:00:00,24.1,18.2,29.59,WNW,287,22.0,32.0,78,0.00,,---,0.00,VWS V15.00,2013-04-20 06:00:00,
2013-04-20 02:02:00,24.1,18.0,29.59,WNW,284,26.0,28.0,77,0.00,,---,0.00,VWS V14.01,2013-04-20 06:02:00,
2013-04-20 02:07:00,24.1,18.0,29.59,NW,306,21.0,28.0,77,0.00,,---,0.00,VWS V14.01,2013-04-20 06:07:00,
2013-04-20 02:12:00,24.1,17.6,29.60,West,275,30.0,31.0,76,0.00,,---,0.00,VWS V14.01,2013-04-20 06:12:00,
2013-04-20 02:17:00,23.9,17.5,29.60,West,277,25.0,31.0,76,0.00,,---,0.00,VWS V14.01,2013-04-20 06:17:00,
2013-04-20 02:22:00,23.6,16.5,29.60,West,279,27.0,31.0,74,0.00,,---,0.00,VWS V14.01,2013-04-20 06:22:00,
2013-04-20 02:27:00,23.4,16.4,29.61,WNW,287,18.0,31.0,74,0.00,,---,0.00,VWS V14.01,2013-04-20 06:27:00,
2013-04-20 02:30:00,23.3,15.6,29.61,WNW,296,25.0,32.0,72,0.00,,---,0.00,VWS V15.00,2013-04-20 06:30:00,
2013-04-20 02:32:00,23.2,15.5,29.61,WNW,284,25.0,29.0,72,0.00,,---,0.00,VWS V14.01,2013-04-20 06:32:00,
2013-04-20 02:37:00,23.2,15.8,29.62,WNW,286,23.0,29.0,73,0.00,,---,0.00,VWS V14.01,2013-04-20 06:37:00,
2013-04-20 02:42:00,23.1,15.8,29.62,WNW,283,23.0,30.0,73,0.00,,---,0.00,VWS V14.01,2013-04-20 06:42:00,
2013-04-20 02:47:00,23.1,16.1,29.63,West,270,22.0,30.0,74,0.00,,---,0.00,VWS V14.01,2013-04-20 06:47:00,
2013-04-20 02:52:00,22.9,15.2,29.63,West,281,27.0,31.0,72,0.00,,---,0.00,VWS V14.01,2013-04-20 06:52:00,
2013-04-20 02:57:00,22.6,14.9,29.63,WNW,283,27.0,32.0,72,0.00,,---,0.00,VWS V14.01,2013-04-20 06:57:00,
2013-04-20 03:00:00,22.6,15.3,29.63,WNW,282,28.0,32.0,73,0.00,,---,0.00,VWS V15.00,2013-04-20 07:00:00,
2013-04-20 03:02:00,22.5,15.5,29.64,West,275,26.0,30.0,74,0.00,,---,0.00,VWS V14.01,2013-04-20 07:02:00,
2013-04-20 03:07:00,22.5,15.8,29.64,WNW,285,26.0,31.0,75,0.00,,---,0.00,VWS V14.01,2013-04-20 07:07:00,
2013-04-20 03:12:00,22.6,15.3,29.64,WNW,299,25.0,32.0,73,0.00,,---,0.00,VWS V14.01,2013-04-20 07:12:00,
2013-04-20 03:17:00,22.5,14.9,29.65,NW,315,24.0,32.0,72,0.00,,---,0.00,VWS V14.01,2013-04-20 07:17:00,
2013-04-20 03:22:00,22.5,15.2,29.65,NW,315,23.0,32.0,73,0.00,,---,0.00,VWS V14.01,2013-04-20 07:22:00,
2013-04-20 03:27:00,22.4,15.1,29.66,NW,320,21.0,32.0,73,0.00,,---,0.00,VWS V14.01,2013-04-20 07:27:00,
2013-04-20 03:30:00,22.2,15.2,29.66,NW,315,24.0,32.0,74,0.00,,---,0.00,VWS V15.00,2013-04-20 07:30:00,
2013-04-20 03:32:00,22.2,14.9,29.66,WNW,303,19.0,26.0,73,0.00,,---,0.00,VWS V14.01,2013-04-20 07:32:00,
2013-04-20 03:37:00,22.1,14.8,29.66,WNW,297,25.0,33.0,73,0.00,,---,0.00,VWS V14.01,2013-04-20 07:37:00,
2013-04-20 03:42:00,21.9,14.6,29.66,NW,304,24.0,33.0,73,0.00,,---,0.00,VWS V14.01,2013-04-20 07:42:00,
2013-04-20 03:47:00,21.8,14.5,29.67,NW,320,17.0,33.0,73,0.00,,---,0.00,VWS V14.01,2013-04-20 07:47:00,
2013-04-20 03:53:00,21.7,14.4,29.67,NW,315,22.0,33.0,73,0.00,,---,0.00,VWS V14.01,2013-04-20 07:53:00,
2013-04-20 03:58:00,21.5,13.9,29.68,WNW,296,25.0,33.0,72,0.00,,---,0.00,VWS V14.01,2013-04-20 07:58:00,
2013-04-20 04:00:00,21.2,13.6,29.68,NW,311,19.0,33.0,72,0.00,,---,0.00,VWS V15.00,2013-04-20 08:00:00,
2013-04-20 04:03:00,21.2,13.9,29.68,NW,320,20.0,22.0,73,0.00,,---,0.00,VWS V14.01,2013-04-20 08:03:00,
2013-04-20 04:08:00,21.1,13.8,29.69,NW,304,21.0,22.0,73,0.00,,---,0.00,VWS V14.01,2013-04-20 08:08:00,
2013-04-20 04:13:00,20.9,13.6,29.69,WNW,300,19.0,24.0,73,0.00,,---,0.00,VWS V14.01,2013-04-20 08:13:00,
2013-04-20 04:18:00,21.0,14.3,29.69,NW,325,19.0,25.0,75,0.00,,---,0.00,VWS V14.01,2013-04-20 08:18:00,
2013-04-20 04:23:00,20.6,13.6,29.70,NW,307,21.0,25.0,74,0.00,,---,0.00,VWS V14.01,2013-04-20 08:23:00,
2013-04-20 04:28:00,20.4,14.1,29.70,NNW,331,17.0,25.0,76,0.00,,---,0.00,VWS V14.01,2013-04-20 08:28:00,
2013-04-20 04:30:00,20.2,13.9,29.71,NW,325,16.0,25.0,76,0.00,,---,0.00,VWS V15.00,2013-04-20 08:30:00,
2013-04-20 04:33:00,20.3,14.3,29.71,North,4,18.0,18.0,77,0.00,,---,0.00,VWS V14.01,2013-04-20 08:33:00,
2013-04-20 04:38:00,20.3,14.3,29.71,NW,311,18.0,20.0,77,0.00,,---,0.00,VWS V14.01,2013-04-20 08:38:00,
2013-04-20 04:43:00,19.8,13.5,29.72,NW,325,17.0,22.0,76,0.00,,---,0.00,VWS V14.01,2013-04-20 08:43:00,
2013-04-20 04:48:00,19.9,13.6,29.72,NNW,335,13.0,22.0,76,0.00,,---,0.00,VWS V14.01,2013-04-20 08:48:00,
2013-04-20 04:53:00,19.7,14.3,29.73,NW,325,17.0,22.0,79,0.00,,---,0.00,VWS V14.01,2013-04-20 08:53:00,
2013-04-20 04:58:00,19.2,13.8,29.73,NW,325,19.0,22.0,79,0.00,,---,0.00,VWS V14.01,2013-04-20 08:58:00,
2013-04-20 05:00:00,19.1,13.4,29.74,North,359,19.0,23.0,78,0.00,,---,0.00,VWS V15.00,2013-04-20 09:00:00,
2013-04-20 05:03:00,19.1,13.1,29.74,NNW,342,24.0,24.0,77,0.00,,---,0.00,VWS V14.01,2013-04-20 09:03:00,
2013-04-20 05:08:00,19.0,11.8,29.74,NW,325,23.0,26.0,73,0.00,,---,0.00,VWS V14.01,2013-04-20 09:08:00,
2013-04-20 05:13:00,18.9,11.1,29.75,NW,325,23.0,27.0,71,0.00,,---,0.00,VWS V14.01,2013-04-20 09:13:00,
2013-04-20 05:18:00,18.7,10.6,29.75,NW,311,24.0,27.0,70,0.00,,---,0.00,VWS V14.01,2013-04-20 09:18:00,
2013-04-20 05:23:00,18.7,10.9,29.75,NNW,341,24.0,27.0,71,0.00,,---,0.00,VWS V14.01,2013-04-20 09:23:00,
2013-04-20 05:28:00,18.5,10.4,29.76,North,4,21.0,27.0,70,0.00,,---,0.00,VWS V14.01,2013-04-20 09:28:00,
2013-04-20 05:30:00,18.4,9.9,29.76,NNW,346,16.0,27.0,69,0.00,,---,0.00,VWS V15.00,2013-04-20 09:30:00,
2013-04-20 05:33:00,18.6,10.8,29.76,NNW,338,17.0,20.0,71,0.00,,---,0.00,VWS V14.01,2013-04-20 09:33:00,
2013-04-20 05:38:00,18.3,9.5,29.77,NNW,335,22.0,28.0,68,0.00,,---,0.00,VWS V14.01,2013-04-20 09:38:00,
2013-04-20 05:44:00,18.3,9.5,29.77,NNW,346,20.0,28.0,68,0.00,,---,0.00,VWS V14.01,2013-04-20 09:44:00,
2013-04-20 05:49:00,18.1,9.0,29.77,NNW,344,25.0,28.0,67,0.00,,---,0.00,VWS V14.01,2013-04-20 09:49:00,
2013-04-20 05:54:00,18.2,9.4,29.78,North,350,18.0,28.0,68,0.00,,---,0.00,VWS V14.01,2013-04-20 09:54:00,
2013-04-20 05:59:00,18.0,9.2,29.78,North,8,21.0,28.0,68,0.00,,---,0.00,VWS V14.01,2013-04-20 09:59:00,
2013-04-20 06:00:00,18.0,9.2,29.78,NNE,12,17.0,28.0,68,0.00,,---,0.00,VWS V15.00,2013-04-20 10:00:00,
2013-04-20 06:04:00,18.0,9.2,29.78,NNE,19,19.0,23.0,68,0.00,,---,0.00,VWS V14.01,2013-04-20 10:04:00,
2013-04-20 06:09:00,17.9,9.5,29.79,NNW,341,16.0,23.0,69,0.00,,---,0.00,VWS V14.01,2013-04-20 10:09:00,
2013-04-20 06:14:00,17.8,9.4,29.80,North,9,17.0,23.0,69,0.00,,---,0.00,VWS V14.01,2013-04-20 10:14:00,
2013-04-20 06:19:00,17.8,9.4,29.80,North,6,16.0,23.0,69,0.00,,---,0.00,VWS V14.01,2013-04-20 10:19:00,
2013-04-20 06:24:00,17.8,9.7,29.80,NNW,347,12.0,23.0,70,0.00,,---,0.00,VWS V14.01,2013-04-20 10:24:00,
2013-04-20 06:29:00,17.7,9.3,29.80,NNW,348,10.0,23.0,69,0.00,,---,0.00,VWS V14.01,2013-04-20 10:29:00,
2013-04-20 06:30:00,17.7,9.6,29.81,North,9,13.0,23.0,70,0.00,,---,0.00,VWS V15.00,2013-04-20 10:30:00,
2013-04-20 06:34:00,17.7,9.9,29.81,North,3,14.0,14.0,71,0.00,,---,0.00,VWS V14.01,2013-04-20 10:34:00,
2013-04-20 06:39:00,17.6,9.8,29.81,NNW,347,12.0,16.0,71,0.00,,---,0.00,VWS V14.01,2013-04-20 10:39:00,
2013-04-20 06:44:00,17.6,9.8,29.82,North,10,11.0,16.0,71,0.00,,---,0.00,VWS V14.01,2013-04-20 10:44:00,
2013-04-20 06:49:00,17.6,9.8,29.82,NNW,348,14.0,16.0,71,0.00,,---,0.00,VWS V14.01,2013-04-20 10:49:00,
2013-04-20 06:54:00,17.5,9.4,29.83,North,354,13.0,16.0,70,0.00,,---,0.00,VWS V14.01,2013-04-20 10:54:00,
2013-04-20 06:59:00,17.6,9.8,29.83,NNW,346,11.0,16.0,71,0.00,,---,0.00,VWS V14.01,2013-04-20 10:59:00,
2013-04-20 07:00:00,17.7,10.2,29.83,NNW,337,9.0,16.0,72,0.00,,---,0.00,VWS V15.00,2013-04-20 11:00:00,
2013-04-20 07:04:00,17.7,10.2,29.83,North,354,8.0,12.0,72,0.00,,---,0.00,VWS V14.01,2013-04-20 11:04:00,
2013-04-20 07:09:00,17.7,9.6,29.84,North,350,13.0,18.0,70,0.00,,---,0.00,VWS V14.01,2013-04-20 11:09:00,
2013-04-20 07:14:00,17.7,9.6,29.84,North,357,6.0,18.0,70,0.00,,---,0.00,VWS V14.01,2013-04-20 11:14:00,
2013-04-20 07:19:00,17.7,9.3,29.85,NNW,345,14.0,18.0,69,0.00,,---,0.00,VWS V14.01,2013-04-20 11:19:00,
2013-04-20 07:24:00,17.9,9.8,29.85,NNW,339,13.0,18.0,70,0.00,,---,0.00,VWS V14.01,2013-04-20 11:24:00,
2013-04-20 07:29:00,17.9,9.5,29.85,NW,325,21.0,25.0,69,0.00,,---,0.00,VWS V14.01,2013-04-20 11:29:00,
2013-04-20 07:30:00,17.9,9.5,29.85,NW,325,20.0,26.0,69,0.00,,---,0.00,VWS V15.00,2013-04-20 11:30:00,
2013-04-20 07:34:00,17.9,9.5,29.86,NW,325,19.0,22.0,69,0.00,,---,0.00,VWS V14.01,2013-04-20 11:34:00,
2013-04-20 07:39:00,17.9,9.8,29.86,NW,325,19.0,22.0,70,0.00,,---,0.00,VWS V14.01,2013-04-20 11:39:00,
2013-04-20 07:44:00,17.9,9.8,29.86,NNW,331,19.0,23.0,70,0.00,,---,0.00,VWS V14.01,2013-04-20 11:44:00,
2013-04-20 07:49:00,17.9,9.8,29.87,North,356,21.0,24.0,70,0.00,,---,0.00,VWS V14.01,2013-04-20 11:49:00,
2013-04-20 07:54:00,18.0,9.9,29.87,NW,315,17.0,24.0,70,0.00,,---,0.00,VWS V14.01,2013-04-20 11:54:00,
2013-04-20 07:59:00,18.1,10.3,29.88,NNW,330,13.0,24.0,71,0.00,,---,0.00,VWS V14.01,2013-04-20 11:59:00,
2013-04-20 08:00:00,18.2,10.7,29.88,NW,315,20.0,24.0,72,0.00,,---,0.00,VWS V15.00,2013-04-20 12:00:00,
2013-04-20 08:04:00,18.2,10.7,29.88,NNW,332,18.0,23.0,72,0.00,,---,0.00,VWS V14.01,2013-04-20 12:04:00,
2013-04-20 08:09:00,18.1,10.6,29.88,NW,308,18.0,23.0,72,0.00,,---,0.00,VWS V14.01,2013-04-20 12:09:00,
2013-04-20 08:14:00,18.1,10.6,29.88,NW,325,21.0,23.0,72,0.00,,---,0.00,VWS V14.01,2013-04-20 12:14:00,
2013-04-20 08:19:00,17.8,10.0,29.89,NW,320,21.0,26.0,71,0.00,,---,0.00,VWS V14.01,2013-04-20 12:19:00,
2013-04-20 08:24:00,17.8,10.0,29.89,NNW,338,27.0,27.0,71,0.00,,---,0.00,VWS V14.01,2013-04-20 12:24:00,
2013-04-20 08:29:00,17.8,10.0,29.90,NNW,347,23.0,27.0,71,0.00,,---,0.00,VWS V14.01,2013-04-20 12:29:00,
2013-04-20 08:30:00,17.8,10.0,29.90,North,351,23.0,27.0,71,0.00,,---,0.00,VWS V15.00,2013-04-20 12:30:00,
2013-04-20 08:34:00,17.8,9.7,29.90,NNW,332,23.0,25.0,70,0.00,,---,0.00,VWS V14.01,2013-04-20 12:34:00,
2013-04-20 08:39:00,18.0,10.2,29.91,North,352,19.0,25.0,71,0.00,,---,0.00,VWS V14.01,2013-04-20 12:39:00,
2013-04-20 08:44:00,18.1,10.3,29.91,North,350,20.0,25.0,71,0.00,,---,0.00,VWS V14.01,2013-04-20 12:44:00,
2013-04-20 08:49:00,18.2,10.4,29.91,NNW,335,17.0,25.0,71,0.00,,---,0.00,VWS V14.01,2013-04-20 12:49:00,
2013-04-20 08:54:00,18.5,10.7,29.92,NNW,333,18.0,25.0,71,0.00,,---,0.00,VWS V14.01,2013-04-20 12:54:00,
2013-04-20 08:59:00,18.4,10.3,29.92,NNW,335,22.0,25.0,70,0.00,,---,0.00,VWS V14.01,2013-04-20 12:59:00,
2013-04-20 09:00:00,18.4,10.3,29.92,NNW,346,21.0,25.0,70,0.00,,---,0.00,VWS V15.00,2013-04-20 13:00:00,
2013-04-20 09:05:00,18.3,9.9,29.92,NNW,342,19.0,25.0,69,0.00,,---,0.00,VWS V14.01,2013-04-20 13:05:00,
2013-04-20 09:10:00,18.6,10.8,29.92,North,359,21.0,25.0,71,0.00,,---,0.00,VWS V14.01,2013-04-20 13:10:00,
2013-04-20 09:15:00,19.0,11.5,29.93,NNW,333,18.0,25.0,72,0.00,,---,0.00,VWS V14.01,2013-04-20 13:15:00,
2013-04-20 09:20:00,19.0,11.2,29.93,NNW,329,17.0,25.0,71,0.00,,---,0.00,VWS V14.01,2013-04-20 13:20:00,
2013-04-20 09:25:00,19.1,11.3,29.93,NNW,333,18.0,25.0,71,0.00,,---,0.00,VWS V14.01,2013-04-20 13:25:00,
2013-04-20 09:30:00,19.3,11.4,29.93,NNW,339,15.0,25.0,71,0.00,,---,0.00,VWS V14.01,2013-04-20 13:30:00,
2013-04-20 09:35:00,19.6,12.4,29.94,NNW,332,13.0,26.0,73,0.00,,---,0.00,VWS V14.01,2013-04-20 13:35:00,
2013-04-20 09:40:00,19.8,11.9,29.94,NNW,342,18.0,26.0,71,0.00,,---,0.00,VWS V14.01,2013-04-20 13:40:00,
2013-04-20 09:45:00,19.9,12.3,29.95,NW,325,17.0,26.0,72,0.00,,---,0.00,VWS V14.01,2013-04-20 13:45:00,
2013-04-20 09:50:00,20.1,12.9,29.95,NW,315,16.0,26.0,73,0.00,,---,0.00,VWS V14.01,2013-04-20 13:50:00,
2013-04-20 09:55:00,20.3,12.7,29.95,NW,325,17.0,26.0,72,0.00,,---,0.00,VWS V14.01,2013-04-20 13:55:00,
2013-04-20 10:00:00,20.6,13.0,29.95,NW,315,18.0,26.0,72,0.00,,---,0.00,VWS V14.01,2013-04-20 14:00:00,
2013-04-20 10:05:00,20.7,12.8,29.96,NW,315,17.0,20.0,71,0.00,,---,0.00,VWS V14.01,2013-04-20 14:05:00,
2013-04-20 10:10:00,21.0,13.7,29.96,NW,315,19.0,20.0,73,0.00,,---,0.00,VWS V14.01,2013-04-20 14:10:00,
2013-04-20 10:15:00,21.2,13.9,29.97,NNW,332,13.0,20.0,73,0.00,,---,0.00,VWS V14.01,2013-04-20 14:15:00,
2013-04-20 10:20:00,21.4,14.1,29.97,NW,315,16.0,20.0,73,0.00,,---,0.00,VWS V14.01,2013-04-20 14:20:00,
2013-04-20 10:25:00,21.6,14.6,29.97,NW,310,17.0,20.0,74,0.00,,---,0.00,VWS V14.01,2013-04-20 14:25:00,
2013-04-20 10:30:00,21.7,14.4,29.98,WNW,301,18.0,20.0,73,0.00,,---,0.00,VWS V14.01,2013-04-20 14:30:00,
2013-04-20 10:35:00,21.8,14.2,29.98,WNW,301,16.0,22.0,72,0.00,,---,0.00,VWS V14.01,2013-04-20 14:35:00,
2013-04-20 10:40:00,21.8,14.2,29.98,NW,304,17.0,22.0,72,0.00,,---,0.00,VWS V14.01,2013-04-20 14:40:00,
2013-04-20 10:45:00,22.2,14.6,29.99,NW,320,17.0,22.0,72,0.00,,---,0.00,VWS V14.01,2013-04-20 14:45:00,
2013-04-20 10:50:00,22.4,14.8,29.99,NW,311,18.0,22.0,72,0.00,,---,0.00,VWS V14.01,2013-04-20 14:50:00,
2013-04-20 10:55:00,22.7,14.7,29.99,NW,320,19.0,22.0,71,0.00,,---,0.00,VWS V14.01,2013-04-20 14:55:00,
2013-04-20 11:00:00,22.9,14.9,30.00,NW,315,17.0,22.0,71,0.00,,---,0.00,VWS V14.01,2013-04-20 15:00:00,
2013-04-20 11:05:00,23.2,15.5,30.00,NW,309,19.0,22.0,72,0.00,,---,0.00,VWS V14.01,2013-04-20 15:05:00,
2013-04-20 11:10:00,23.4,15.4,30.00,WSW,254,22.0,26.0,71,0.00,,---,0.00,VWS V14.01,2013-04-20 15:10:00,
2013-04-20 11:15:00,23.6,15.6,30.00,West,261,16.0,26.0,71,0.00,,---,0.00,VWS V14.01,2013-04-20 15:15:00,
2013-04-20 11:20:00,23.9,15.2,30.00,West,262,22.0,28.0,69,0.00,,---,0.00,VWS V14.01,2013-04-20 15:20:00,
2013-04-20 11:25:00,24.0,15.3,30.01,WSW,252,21.0,28.0,69,0.00,,---,0.00,VWS V14.01,2013-04-20 15:25:00,
2013-04-20 11:30:00,24.2,15.5,30.01,WSW,249,21.0,28.0,69,0.00,,---,0.00,VWS V14.01,2013-04-20 15:30:00,
2013-04-20 11:35:00,24.4,16.0,30.02,WSW,248,26.0,26.0,70,0.00,,---,0.00,VWS V14.01,2013-04-20 15:35:00,
2013-04-20 11:40:00,24.3,15.6,30.02,NW,320,21.0,26.0,69,0.00,,---,0.00,VWS V14.01,2013-04-20 15:40:00,
2013-04-20 11:45:00,24.4,16.0,30.02,NW,310,17.0,26.0,70,0.00,,---,0.00,VWS V14.01,2013-04-20 15:45:00,
2013-04-20 11:50:00,24.5,16.8,30.03,NW,308,20.0,26.0,72,0.00,,---,0.00,VWS V14.01,2013-04-20 15:50:00,
2013-04-20 11:55:00,24.3,16.3,30.03,NW,309,23.0,26.0,71,0.00,,---,0.00,VWS V14.01,2013-04-20 15:55:00,
2013-04-20 12:00:00,24.3,16.3,30.04,NW,315,19.0,26.0,71,0.00,,---,0.00,VWS V14.01,2013-04-20 16:00:00,
2013-04-20 12:05:00,24.2,17.1,30.05,WNW,298,21.0,22.0,74,0.00,,---,0.00,VWS V14.01,2013-04-20 16:05:00,
2013-04-20 12:10:00,24.2,17.4,30.05,WNW,295,16.0,23.0,75,0.00,,---,0.00,VWS V14.01,2013-04-20 16:10:00,
2013-04-20 12:15:00,24.2,17.7,30.05,WNW,303,19.0,23.0,76,0.00,,---,0.00,VWS V14.01,2013-04-20 16:15:00,
2013-04-20 12:20:00,24.2,17.4,30.06,NW,308,23.0,23.0,75,0.00,,---,0.00,VWS V14.01,2013-04-20 16:20:00,
2013-04-20 12:25:00,24.5,16.8,30.06,WNW,293,22.0,25.0,72,0.00,,---,0.00,VWS V14.01,2013-04-20 16:25:00,
2013-04-20 12:30:00,24.5,15.8,30.06,NW,315,24.0,25.0,69,0.00,,---,0.00,VWS V14.01,2013-04-20 16:30:00,
2013-04-20 12:35:00,24.6,15.9,30.07,NW,311,22.0,25.0,69,0.00,,---,0.00,VWS V14.01,2013-04-20 16:35:00,
2013-04-20 12:40:00,24.9,16.5,30.07,NW,315,22.0,25.0,70,0.00,,---,0.00,VWS V14.01,2013-04-20 16:40:00,
2013-04-20 12:45:00,25.0,18.2,30.08,NW,307,15.0,25.0,75,0.00,,---,0.00,VWS V14.01,2013-04-20 16:45:00,
2013-04-20 12:50:00,25.2,17.5,30.08,NW,315,22.0,25.0,72,0.00,,---,0.00,VWS V14.01,2013-04-20 16:50:00,
2013-04-20 12:55:00,25.1,18.3,30.08,NW,308,20.0,25.0,75,0.00,,---,0.00,VWS V14.01,2013-04-20 16:55:00,
2013-04-20 13:00:00,25.2,18.1,30.08,WNW,296,20.0,25.0,74,0.00,,---,0.00,VWS V14.01,2013-04-20 17:00:00,
2013-04-20 13:05:00,25.0,17.6,30.09,NW,306,21.0,26.0,73,0.00,,---,0.00,VWS V14.01,2013-04-20 17:05:00,
2013-04-20 13:10:00,24.9,17.5,30.09,WNW,291,22.0,26.0,73,0.00,,---,0.00,VWS V14.01,2013-04-20 17:10:00,
2013-04-20 13:15:00,25.1,18.3,30.09,WNW,288,24.0,26.0,75,0.00,,---,0.00,VWS V14.01,2013-04-20 17:15:00,
2013-04-20 13:20:00,25.2,18.7,30.10,WNW,283,19.0,28.0,76,0.00,,---,0.00,VWS V14.01,2013-04-20 17:20:00,
2013-04-20 13:25:00,25.2,18.4,30.10,West,281,28.0,28.0,75,0.00,,---,0.00,VWS V14.01,2013-04-20 17:25:00,
2013-04-20 13:30:00,25.2,18.4,30.10,NW,304,21.0,28.0,75,0.00,,---,0.00,VWS V14.01,2013-04-20 17:30:00,
2013-04-20 13:35:00,25.6,19.1,30.10,WSW,239,28.0,30.0,76,0.00,,---,0.00,VWS V14.01,2013-04-20 17:35:00,
2013-04-20 13:40:00,25.4,18.0,30.11,WSW,244,25.0,32.0,73,0.00,,---,0.00,VWS V14.01,2013-04-20 17:40:00,
2013-04-20 13:45:00,25.6,18.5,30.11,WSW,238,18.0,32.0,74,0.00,,---,0.00,VWS V14.01,2013-04-20 17:45:00,
2013-04-20 13:50:00,26.0,18.2,30.12,SW,235,28.0,32.0,72,0.00,,---,0.00,VWS V14.01,2013-04-20 17:50:00,
2013-04-20 13:55:00,26.1,18.6,30.12,WSW,237,25.0,32.0,73,0.00,,---,0.00,VWS V14.01,2013-04-20 17:55:00,
2013-04-20 14:00:00,26.1,17.3,30.13,WSW,242,26.0,32.0,69,0.00,,---,0.00,VWS V14.01,2013-04-20 18:00:00,
2013-04-20 14:05:00,26.0,16.6,30.13,WSW,237,22.0,28.0,67,0.00,,---,0.00,VWS V14.01,2013-04-20 18:05:00,
2013-04-20 14:10:00,26.0,15.9,30.13,SW,229,28.0,29.0,65,0.00,,---,0.00,VWS V14.01,2013-04-20 18:10:00,
2013-04-20 14:15:00,26.0,15.5,30.14,WSW,254,24.0,30.0,64,0.00,,---,0.00,VWS V14.01,2013-04-20 18:15:00,
2013-04-20 14:20:00,26.0,15.1,30.14,WSW,244,22.0,31.0,63,0.00,,---,0.00,VWS V14.01,2013-04-20 18:20:00,
2013-04-20 14:25:00,26.2,14.2,30.14,WSW,242,23.0,31.0,60,0.00,,---,0.00,VWS V14.01,2013-04-20 18:25:00,
2013-04-20 14:30:00,26.5,14.9,30.14,WSW,246,24.0,31.0,61,0.00,,---,0.00,VWS V14.01,2013-04-20 18:30:00,
2013-04-20 14:35:00,26.5,14.9,30.14,WSW,244,23.0,28.0,61,0.00,,---,0.00,VWS V14.01,2013-04-20 18:35:00,
2013-04-20 14:40:00,26.6,14.2,30.15,WSW,257,27.0,29.0,59,0.00,,---,0.00,VWS V14.01,2013-04-20 18:40:00,
2013-04-20 14:45:00,26.9,15.6,30.15,WSW,244,21.0,29.0,62,0.00,,---,0.00,VWS V14.01,2013-04-20 18:45:00,
2013-04-20 14:50:00,27.0,15.7,30.15,WSW,239,21.0,29.0,62,0.00,,---,0.00,VWS V14.01,2013-04-20 18:50:00,
2013-04-20 14:55:00,26.6,14.2,30.16,NW,315,20.0,29.0,59,0.00,,---,0.00,VWS V14.01,2013-04-20 18:55:00,
2013-04-20 15:00:00,27.0,15.4,30.16,NW,315,19.0,29.0,61,0.00,,---,0.00,VWS V14.01,2013-04-20 19:00:00,
2013-04-20 15:05:00,27.1,15.1,30.16,NW,308,21.0,23.0,60,0.00,,---,0.00,VWS V14.01,2013-04-20 19:05:00,
2013-04-20 15:10:00,27.0,15.7,30.16,NW,310,21.0,24.0,62,0.00,,---,0.00,VWS V14.01,2013-04-20 19:10:00,
2013-04-20 15:15:00,27.0,15.7,30.17,NW,320,24.0,27.0,62,0.00,,---,0.00,VWS V14.01,2013-04-20 19:15:00,
2013-04-20 15:20:00,27.3,16.4,30.17,WNW,303,21.0,28.0,63,0.00,,---,0.00,VWS V14.01,2013-04-20 19:20:00,
2013-04-20 15:25:00,27.4,16.5,30.17,NW,315,23.0,28.0,63,0.00,,---,0.00,VWS V14.01,2013-04-20 19:25:00,
2013-04-20 15:30:00,27.3,16.4,30.17,NW,315,22.0,28.0,63,0.00,,---,0.00,VWS V14.01,2013-04-20 19:30:00,
2013-04-20 15:35:00,27.5,16.6,30.18,NW,304,20.0,22.0,63,0.00,,---,0.00,VWS V14.01,2013-04-20 19:35:00,
2013-04-20 15:40:00,27.5,16.6,30.18,NW,306,20.0,27.0,63,0.00,,---,0.00,VWS V14.01,2013-04-20 19:40:00,
2013-04-20 15:45:00,27.7,17.1,30.18,NW,315,23.0,27.0,64,0.00,,---,0.00,VWS V14.01,2013-04-20 19:45:00,
2013-04-20 15:50:00,27.7,16.8,30.18,NW,315,21.0,27.0,63,0.00,,---,0.00,VWS V14.01,2013-04-20 19:50:00,
2013-04-20 15:56:00,27.8,16.9,30.19,NW,315,22.0,27.0,63,0.00,,---,0.00,VWS V14.01,2013-04-20 19:56:00,
2013-04-20 16:00:00,28.0,17.4,30.19,NW,315,21.0,27.0,64,0.00,,---,0.00,VWS V15.00,2013-04-20 20:00:00,
2013-04-20 16:01:00,28.0,17.4,30.19,NW,306,19.0,27.0,64,0.00,,---,0.00,VWS V14.01,2013-04-20 20:01:00,
2013-04-20 16:06:00,28.0,17.4,30.19,NW,308,22.0,25.0,64,0.00,,---,0.00,VWS V14.01,2013-04-20 20:06:00,
2013-04-20 16:11:00,28.1,16.8,30.20,WNW,301,16.0,25.0,62,0.00,,---,0.00,VWS V14.01,2013-04-20 20:11:00,
2013-04-20 16:16:00,28.3,17.3,30.20,NW,306,20.0,25.0,63,0.00,,---,0.00,VWS V14.01,2013-04-20 20:16:00,
2013-04-20 16:21:00,28.4,18.1,30.20,NW,308,20.0,25.0,65,0.00,,---,0.00,VWS V14.01,2013-04-20 20:21:00,
2013-04-20 16:26:00,28.4,17.4,30.21,NW,315,20.0,25.0,63,0.00,,---,0.00,VWS V14.01,2013-04-20 20:26:00,
2013-04-20 16:30:00,28.4,18.1,30.21,NW,315,23.0,25.0,65,0.00,,---,0.00,VWS V15.00,2013-04-20 20:30:00,
2013-04-20 16:31:00,28.3,18.1,30.21,NW,315,22.0,25.0,65,0.00,,---,0.00,VWS V14.01,2013-04-20 20:31:00,
2013-04-20 16:36:00,28.4,17.4,30.21,NW,315,22.0,24.0,63,0.00,,---,0.00,VWS V14.01,2013-04-20 20:36:00,
2013-04-20 16:41:00,28.3,17.3,30.22,NW,320,22.0,24.0,63,0.00,,---,0.00,VWS V14.01,2013-04-20 20:41:00,
2013-04-20 16:46:00,28.4,17.8,30.22,NW,308,21.0,25.0,64,0.00,,---,0.00,VWS V14.01,2013-04-20 20:46:00,
2013-04-20 16:51:00,28.6,18.3,30.22,NW,309,21.0,25.0,65,0.00,,---,0.00,VWS V14.01,2013-04-20 20:51:00,
2013-04-20 16:56:00,28.6,16.9,30.23,NW,306,22.0,25.0,61,0.00,,---,0.00,VWS V14.01,2013-04-20 20:56:00,
2013-04-20 17:00:00,28.7,17.3,30.23,NW,305,21.0,25.0,62,0.00,,---,0.00,VWS V15.00,2013-04-20 21:00:00,
2013-04-20 17:01:00,28.7,17.3,30.23,NW,304,18.0,25.0,62,0.00,,---,0.00,VWS V14.01,2013-04-20 21:01:00,
2013-04-20 17:06:00,28.7,18.1,30.23,NW,311,21.0,21.0,64,0.00,,---,0.00,VWS V14.01,2013-04-20 21:06:00,
2013-04-20 17:11:00,28.7,18.1,30.24,NW,308,20.0,21.0,64,0.00,,---,0.00,VWS V14.01,2013-04-20 21:11:00,
2013-04-20 17:16:00,28.5,17.5,30.24,NW,306,23.0,23.0,63,0.00,,---,0.00,VWS V14.01,2013-04-20 21:16:00,
2013-04-20 17:21:00,28.6,18.3,30.24,NW,315,22.0,24.0,65,0.00,,---,0.00,VWS V14.01,2013-04-20 21:21:00,
2013-04-20 17:26:00,28.5,17.9,30.25,NW,315,21.0,24.0,64,0.00,,---,0.00,VWS V14.01,2013-04-20 21:26:00,
2013-04-20 17:30:00,28.4,17.1,30.25,NW,315,22.0,24.0,62,0.00,,---,0.00,VWS V15.00,2013-04-20 21:30:00,
2013-04-20 17:31:00,28.4,17.4,30.25,NW,311,24.0,24.0,63,0.00,,---,0.00,VWS V14.01,2013-04-20 21:31:00,
2013-04-20 17:36:00,28.4,17.4,30.25,NW,309,20.0,25.0,63,0.00,,---,0.00,VWS V14.01,2013-04-20 21:36:00,
2013-04-20 17:41:00,28.6,17.2,30.25,NW,309,22.0,25.0,62,0.00,,---,0.00,VWS V14.01,2013-04-20 21:41:00,
2013-04-20 17:46:00,28.6,17.2,30.25,NW,305,19.0,25.0,62,0.00,,---,0.00,VWS V14.01,2013-04-20 21:46:00,
2013-04-20 17:51:00,28.7,16.6,30.26,NW,315,18.0,25.0,60,0.00,,---,0.00,VWS V14.01,2013-04-20 21:51:00,
2013-04-20 17:56:00,28.6,17.2,30.26,NW,311,18.0,25.0,62,0.00,,---,0.00,VWS V14.01,2013-04-20 21:56:00,
2013-04-20 18:00:00,28.6,17.2,30.26,NW,308,18.0,25.0,62,0.00,,---,0.00,VWS V15.00,2013-04-20 22:00:00,
2013-04-20 18:01:00,28.6,16.9,30.26,NW,315,17.0,25.0,61,0.00,,---,0.00,VWS V14.01,2013-04-20 22:01:00,
2013-04-20 18:06:00,28.6,16.9,30.27,NW,315,21.0,22.0,61,0.00,,---,0.00,VWS V14.01,2013-04-20 22:06:00,
2013-04-20 18:11:00,28.5,17.5,30.27,NW,307,19.0,22.0,63,0.00,,---,0.00,VWS V14.01,2013-04-20 22:11:00,
2013-04-20 18:16:00,28.6,18.0,30.27,NW,315,22.0,23.0,64,0.00,,---,0.00,VWS V14.01,2013-04-20 22:16:00,
2013-04-20 18:21:00,28.6,18.3,30.28,North,356,17.0,23.0,65,0.00,,---,0.00,VWS V14.01,2013-04-20 22:21:00,
2013-04-20 18:26:00,28.5,17.9,30.28,NW,311,17.0,23.0,64,0.00,,---,0.00,VWS V14.01,2013-04-20 22:26:00,
2013-04-20 18:30:00,28.4,17.4,30.28,NW,325,19.0,23.0,63,0.00,,---,0.00,VWS V15.00,2013-04-20 22:30:00,
2013-04-20 18:31:00,28.4,17.4,30.28,NNW,331,20.0,23.0,63,0.00,,---,0.00,VWS V14.01,2013-04-20 22:31:00,
2013-04-20 18:36:00,28.4,17.4,30.28,NW,304,17.0,20.0,63,0.00,,---,0.00,VWS V14.01,2013-04-20 22:36:00,
2013-04-20 18:41:00,28.5,18.6,30.28,NW,320,15.0,22.0,66,0.00,,---,0.00,VWS V14.01,2013-04-20 22:41:00,
2013-04-20 18:46:00,28.5,17.9,30.29,NW,325,15.0,22.0,64,0.00,,---,0.00,VWS V14.01,2013-04-20 22:46:00,
2013-04-20 18:51:00,28.4,16.7,30.29,NW,315,18.0,22.0,61,0.00,,---,0.00,VWS V14.01,2013-04-20 22:51:00,
2013-04-20 18:56:00,28.4,16.7,30.30,NW,325,15.0,22.0,61,0.00,,---,0.00,VWS V14.01,2013-04-20 22:56:00,
2013-04-20 19:00:00,28.3,17.3,30.30,NW,325,19.0,22.0,63,0.00,,---,0.00,VWS V15.00,2013-04-20 23:00:00,
2013-04-20 19:01:00,28.3,17.3,30.30,NW,325,20.0,22.0,63,0.00,,---,0.00,VWS V14.01,2013-04-20 23:01:00,
2013-04-20 19:06:00,28.2,16.9,30.30,NW,325,17.0,21.0,62,0.00,,---,0.00,VWS V14.01,2013-04-20 23:06:00,
2013-04-20 19:11:00,28.1,16.4,30.31,NW,320,15.0,21.0,61,0.00,,---,0.00,VWS V14.01,2013-04-20 23:11:00,
2013-04-20 19:16:00,28.1,16.8,30.31,NNW,337,15.0,21.0,62,0.00,,---,0.00,VWS V14.01,2013-04-20 23:16:00,
2013-04-20 19:21:00,28.0,16.7,30.31,NNW,346,16.0,22.0,62,0.00,,---,0.00,VWS V14.01,2013-04-20 23:21:00,
2013-04-20 19:26:00,27.9,17.0,30.31,NNW,348,16.0,22.0,63,0.00,,---,0.00,VWS V14.01,2013-04-20 23:26:00,
2013-04-20 19:30:00,27.9,17.0,30.31,NNW,334,17.0,22.0,63,0.00,,---,0.00,VWS V15.00,2013-04-20 23:30:00,
2013-04-20 19:31:00,27.9,17.0,30.31,NNW,337,16.0,22.0,63,0.00,,---,0.00,VWS V14.01,2013-04-20 23:31:00,
2013-04-20 19:36:00,27.8,16.9,30.32,NNW,329,15.0,18.0,63,0.00,,---,0.00,VWS V14.01,2013-04-20 23:36:00,
2013-04-20 19:41:00,27.8,17.6,30.32,NW,315,17.0,18.0,65,0.00,,---,0.00,VWS V14.01,2013-04-20 23:41:00,
2013-04-20 19:46:00,27.6,17.0,30.32,North,350,16.0,19.0,64,0.00,,---,0.00,VWS V14.01,2013-04-20 23:46:00,
2013-04-20 19:51:00,27.5,16.9,30.33,NNW,340,12.0,19.0,64,0.00,,---,0.00,VWS V14.01,2013-04-20 23:51:00,
2013-04-20 19:56:00,27.4,17.2,30.33,North,352,15.0,19.0,65,0.00,,---,0.00,VWS V14.01,2013-04-20 23:56:00,
2013-04-20 20:00:00,27.3,16.8,30.33,North,350,12.0,19.0,64,0.00,,---,0.00,VWS V15.00,2013-04-21 00:00:00,
2013-04-20 20:01:00,27.3,16.8,30.33,North,350,12.0,19.0,64,0.00,,---,0.00,VWS V14.01,2013-04-21 00:01:00,
2013-04-20 20:06:00,27.3,17.1,30.33,North,3,12.0,15.0,65,0.00,,---,0.00,VWS V14.01,2013-04-21 00:06:00,
2013-04-20 20:11:00,27.1,16.6,30.34,North,355,12.0,17.0,64,0.00,,---,0.00,VWS V14.01,2013-04-21 00:11:00,
2013-04-20 20:16:00,27.0,17.2,30.34,NNW,343,10.0,17.0,66,0.00,,---,0.00,VWS V14.01,2013-04-21 00:16:00,
2013-04-20 20:21:00,26.9,17.8,30.34,NW,325,13.0,17.0,68,0.00,,---,0.00,VWS V14.01,2013-04-21 00:21:00,
2013-04-20 20:26:00,26.9,17.1,30.35,North,4,11.0,17.0,66,0.00,,---,0.00,VWS V14.01,2013-04-21 00:26:00,
2013-04-20 20:30:00,26.8,17.3,30.35,NNW,339,13.0,17.0,67,0.00,,---,0.00,VWS V15.00,2013-04-21 00:30:00,
2013-04-20 20:31:00,26.8,17.3,30.35,NW,325,14.0,14.0,67,0.00,,---,0.00,VWS V14.01,2013-04-21 00:31:00,
2013-04-20 20:36:00,26.7,17.6,30.35,NW,325,15.0,16.0,68,0.00,,---,0.00,VWS V14.01,2013-04-21 00:36:00,
2013-04-20 20:41:00,26.6,16.4,30.35,NW,315,16.0,18.0,65,0.00,,---,0.00,VWS V14.01,2013-04-21 00:41:00,
2013-04-20 20:46:00,26.5,16.3,30.36,NNW,334,14.0,18.0,65,0.00,,---,0.00,VWS V14.01,2013-04-21 00:46:00,
2013-04-20 20:51:00,26.4,16.9,30.36,NW,320,13.0,18.0,67,0.00,,---,0.00,VWS V14.01,2013-04-21 00:51:00,
2013-04-20 20:56:00,26.5,17.0,30.36,NW,315,15.0,18.0,67,0.00,,---,0.00,VWS V14.01,2013-04-21 00:56:00,
2013-04-20 21:00:00,26.4,17.6,30.37,NNW,329,13.0,18.0,69,0.00,,---,0.00,VWS V15.00,2013-04-21 01:00:00,
2013-04-20 21:01:00,26.4,17.6,30.37,NNW,335,12.0,13.0,69,0.00,,---,0.00,VWS V14.01,2013-04-21 01:01:00,
2013-04-20 21:06:00,26.4,17.6,30.37,NNW,330,12.0,15.0,69,0.00,,---,0.00,VWS V14.01,2013-04-21 01:06:00,
2013-04-20 21:11:00,26.3,17.2,30.38,NNW,333,13.0,15.0,68,0.00,,---,0.00,VWS V14.01,2013-04-21 01:11:00,
2013-04-20 21:16:00,26.2,17.4,30.38,NNW,337,12.0,15.0,69,0.00,,---,0.00,VWS V14.01,2013-04-21 01:16:00,
2013-04-20 21:21:00,26.2,17.4,30.38,NNW,337,11.0,15.0,69,0.00,,---,0.00,VWS V14.01,2013-04-21 01:21:00,
2013-04-20 21:26:00,26.2,17.4,30.39,NNW,333,10.0,15.0,69,0.00,,---,0.00,VWS V14.01,2013-04-21 01:26:00,
2013-04-20 21:30:00,26.1,17.3,30.39,NNW,337,13.0,15.0,69,0.00,,---,0.00,VWS V15.00,2013-04-21 01:30:00,
2013-04-20 21:31:00,26.1,17.3,30.39,NNW,338,12.0,13.0,69,0.00,,---,0.00,VWS V14.01,2013-04-21 01:31:00,
2013-04-20 21:36:00,26.0,17.6,30.39,NNW,330,11.0,13.0,70,0.00,,---,0.00,VWS V14.01,2013-04-21 01:36:00,
2013-04-20 21:41:00,25.9,17.5,30.39,NNW,335,11.0,13.0,70,0.00,,---,0.00,VWS V14.01,2013-04-21 01:41:00,
2013-04-20 21:46:00,25.9,17.5,30.40,NNW,329,9.0,13.0,70,0.00,,---,0.00,VWS V14.01,2013-04-21 01:46:00,
2013-04-20 21:51:00,25.9,18.1,30.40,NNW,329,11.0,13.0,72,0.00,,---,0.00,VWS V14.01,2013-04-21 01:51:00,
2013-04-20 21:56:00,25.8,17.4,30.40,NW,325,10.0,13.0,70,0.00,,---,0.00,VWS V14.01,2013-04-21 01:56:00,
2013-04-20 22:00:00,25.8,17.7,30.40,NNW,336,9.0,13.0,71,0.00,,---,0.00,VWS V15.00,2013-04-21 02:00:00,
2013-04-20 22:02:00,25.8,17.7,30.40,NNW,339,10.0,10.0,71,0.00,,---,0.00,VWS V14.01,2013-04-21 02:02:00,
2013-04-20 22:07:00,25.7,17.6,30.40,NW,325,11.0,12.0,71,0.00,,---,0.00,VWS V14.01,2013-04-21 02:07:00,
2013-04-20 22:12:00,25.7,17.3,30.41,NNW,333,11.0,12.0,70,0.00,,---,0.00,VWS V14.01,2013-04-21 02:12:00,
2013-04-20 22:17:00,25.7,17.6,30.41,NW,325,9.0,12.0,71,0.00,,---,0.00,VWS V14.01,2013-04-21 02:17:00,
2013-04-20 22:22:00,25.6,17.5,30.41,North,353,12.0,12.0,71,0.00,,---,0.00,VWS V14.01,2013-04-21 02:22:00,
2013-04-20 22:27:00,25.6,17.8,30.41,NNW,343,9.0,12.0,72,0.00,,---,0.00,VWS V14.01,2013-04-21 02:27:00,
2013-04-20 22:30:00,25.5,17.4,30.41,NNW,335,9.0,12.0,71,0.00,,---,0.00,VWS V15.00,2013-04-21 02:30:00,
2013-04-20 22:32:00,25.5,17.4,30.41,NNW,329,10.0,10.0,71,0.00,,---,0.00,VWS V14.01,2013-04-21 02:32:00,
2013-04-20 22:37:00,25.5,17.4,30.41,NNW,339,10.0,13.0,71,0.00,,---,0.00,VWS V14.01,2013-04-21 02:37:00,
2013-04-20 22:42:00,25.4,17.6,30.41,NNW,333,11.0,13.0,72,0.00,,---,0.00,VWS V14.01,2013-04-21 02:42:00,
2013-04-20 22:47:00,25.4,17.6,30.42,NW,320,11.0,14.0,72,0.00,,---,0.00,VWS V14.01,2013-04-21 02:47:00,
2013-04-20 22:52:00,25.3,17.5,30.42,NW,325,9.0,14.0,72,0.00,,---,0.00,VWS V14.01,2013-04-21 02:52:00,
2013-04-20 22:57:00,25.3,17.9,30.42,NNW,331,8.0,14.0,73,0.00,,---,0.00,VWS V14.01,2013-04-21 02:57:00,
2013-04-20 23:00:00,25.2,17.8,30.42,NNW,331,8.0,14.0,73,0.00,,---,0.00,VWS V15.00,2013-04-21 03:00:00,
2013-04-20 23:02:00,25.2,17.8,30.42,NNW,329,7.0,8.0,73,0.00,,---,0.00,VWS V14.01,2013-04-21 03:02:00,
2013-04-20 23:07:00,25.2,18.1,30.42,NNW,329,6.0,8.0,74,0.00,,---,0.00,VWS V14.01,2013-04-21 03:07:00,
2013-04-20 23:12:00,25.2,17.8,30.42,NW,325,7.0,9.0,73,0.00,,---,0.00,VWS V14.01,2013-04-21 03:12:00,
2013-04-20 23:17:00,25.1,18.0,30.43,NW,315,6.0,9.0,74,0.00,,---,0.00,VWS V14.01,2013-04-21 03:17:00,
2013-04-20 23:22:00,25.2,18.1,30.43,NW,325,8.0,9.0,74,0.00,,---,0.00,VWS V14.01,2013-04-21 03:22:00,
2013-04-20 23:27:00,25.2,18.1,30.43,NW,315,7.0,9.0,74,0.00,,---,0.00,VWS V14.01,2013-04-21 03:27:00,
2013-04-20 23:30:00,25.1,18.3,30.43,NW,325,8.0,10.0,75,0.00,,---,0.00,VWS V15.00,2013-04-21 03:30:00,
2013-04-20 23:32:00,25.1,18.3,30.43,NW,325,8.0,9.0,75,0.00,,---,0.00,VWS V14.01,2013-04-21 03:32:00,
2013-04-20 23:37:00,25.1,18.6,30.43,NW,315,7.0,9.0,76,0.00,,---,0.00,VWS V14.01,2013-04-21 03:37:00,
2013-04-20 23:42:00,25.1,18.3,30.43,NW,308,9.0,9.0,75,0.00,,---,0.00,VWS V14.01,2013-04-21 03:42:00,
2013-04-20 23:47:00,25.1,18.3,30.43,NW,325,7.0,9.0,75,0.00,,---,0.00,VWS V14.01,2013-04-21 03:47:00,
2013-04-20 23:52:00,25.1,18.6,30.43,NW,320,5.0,9.0,76,0.00,,---,0.00,VWS V14.01,2013-04-21 03:52:00,
2013-04-20 23:57:00,24.9,19.0,30.43,NW,325,6.0,9.0,78,0.00,,---,0.00,VWS V14.01,2013-04-21 03:57:00,